Location: Bernadets
(43.3537°N, 0.3167°E)
Time: 04:11:51
(UTC+00:00)

Cosmos 44 - Pass Details

Date: 24 October 2021
Orbit: 579 x 782 km, 65.1° (Epoch: 29 November)

Event Time Altitude Azimuth Distance (km) Brightness Sun altitude
Rises 18:30:48 0° 208° (SSW) 3,247 7.1 -16.9°
Reaches altitude 10° 18:33:12 10° 207° (SSW) 2,329 6.3 -17.3°
Maximum altitude 18:38:35 78° 121° (ESE) 800 3.4 -18.3°
Enters shadow 18:42:33 19° 37° (NE) 1,797 5.1 -19.0°
